GFSNW_sfc_thetae_003.txt.gz
Theta_e
302 303 305 305 307 307 304 296 288 306 308 292 293 287 289 294 293 296 295 293 292 289 286 284 282 283 287 292 292 288 290 287 280 283 290 292 290 285 285 280 274 280 281 282
303 304 304 305 307 307 301 294 297 306 303 286 287 292 292 294 294 294 294 292 294 294 288 284 285 286 292 294 292 289 291 286 279 283 287 290 288 287 287 286 286 279 276 280
303 304 304 305 307 307 305 297 289 296 298 298 290 289 289 290 298 295 297 295 295 292 289 290 287 287 293 294 294 297 295 288 284 279 284 288 284 287 288 286 281 282 284 287
301 304 304 305 306 307 306 298 293 293 288 291 291 292 293 290 290 297 297 294 294 292 288 288 286 290 291 295 297 294 292 284 286 287 288 289 288 288 288 286 286 282 286 287
301 302 304 305 306 307 303 296 295 295 292 295 292 292 291 292 292 294 293 292 294 294 290 289 285 289 290 290 295 292 294 285 286 285 288 287 286 288 291 289 290 289 290 289
301 302 304 305 306 306 297 299 303 298 293 294 291 291 292 293 296 297 297 295 294 293 295 296 296 295 296 296 294 291 288 286 285 283 290 288 283 287 290 291 293 292 287 293
300 301 303 305 306 306 302 300 298 297 290 293 292 295 295 294 295 293 296 298 295 298 302 300 297 297 296 297 296 295 288 286 286 284 288 281 290 298 296 293 293 294 294 296
300 301 302 304 306 306 301 303 301 299 293 294 294 295 295 295 296 295 295 297 300 303 299 294 290 291 292 291 292 293 294 290 287 285 283 287 290 295 295 292 291 296 295 296
300 301 302 304 305 306 303 301 306 301 295 294 298 296 295 293 292 293 295 299 301 301 297 293 287 283 284 283 287 291 290 290 289 287 280 279 286 293 296 298 288 298 298 297
300 301 302 303 305 306 304 301 307 302 293 299 297 295 293 296 292 289 292 296 297 300 293 290 287 286 287 282 282 284 287 289 285 285 284 284 291 291 293 287 287 292 297 296
300 301 301 303 304 305 304 301 304 304 299 299 299 300 296 295 295 291 296 294 296 295 291 290 289 287 287 284 284 285 286 287 283 283 281 278 292 291 288 290 290 291 292 290
300 301 301 302 303 305 305 300 307 308 301 298 303 301 301 302 302 298 298 296 296 298 294 293 293 288 287 287 282 287 286 290 287 287 286 292 292 291 292 292 291 289 290 291
300 301 301 302 303 304 304 301 305 305 300 299 299 299 303 306 306 306 296 298 300 299 300 297 293 287 290 287 286 285 289 292 290 291 290 290 291 292 292 292 290 291 292 292
300 301 300 301 302 304 303 299 302 303 301 294 295 302 298 302 304 304 304 302 303 302 301 297 290 288 290 287 288 288 291 292 290 289 288 289 291 291 291 290 291 291 291 291
300 299 300 301 302 303 301 300 302 305 302 295 297 299 299 302 303 302 303 302 300 300 299 297 294 292 291 288 288 287 290 292 290 289 293 293 292 292 291 291 290 290 289 289
298 299 300 300 301 302 298 296 305 307 307 298 293 301 300 301 303 302 302 301 300 300 299 298 299 299 296 286 285 293 292 293 295 294 291 290 290 291 291 290 290 290 289 290
298 299 299 300 301 298 292 295 300 303 305 298 291 293 300 301 301 302 301 303 301 300 299 298 297 297 298 292 286 293 293 292 291 291 292 290 289 289 290 290 290 290 288 288
297 298 299 300 300 300 295 300 303 303 302 300 289 290 295 300 298 297 302 299 300 299 297 297 295 293 294 290 292 291 290 290 290 289 290 291 289 289 287 288 289 287 286 285
299 299 300 299 295 294 299 307 306 306 302 293 291 288 287 299 297 297 297 298 295 298 295 294 293 290 288 292 293 291 290 291 288 287 288 288 288 286 287 287 286 285 284 284
297 294 291 291 293 296 303 302 298 296 296 296 293 293 291 296 295 292 294 293 292 287 292 293 290 290 294 295 294 294 291 289 288 286 281 282 282 284 284 285 286 287 284 283
289 289 286 291 295 293 298 290 291 293 289 294 291 292 291 294 291 291 291 287 287 283 285 290 286 288 290 292 294 292 290 290 289 289 288 288 288 285 284 283 283 283 283 283
291 291 294 289 287 288 286 285 287 289 288 291 292 290 291 291 294 291 289 286 287 284 287 286 284 288 285 288 290 289 289 289 289 288 287 286 286 285 284 284 283 283 283 282
293 289 284 283 284 282 283 281 285 285 289 289 289 286 290 289 291 286 285 285 285 283 282 282 284 282 284 285 286 286 288 287 286 285 285 285 283 284 284 282 283 282 281 280
284 281 277 279 281 283 284 284 279 283 288 290 289 287 288 288 285 284 278 285 283 279 278 278 279 280 284 285 285 286 284 284 284 283 284 283 283 282 282 283 283 282 280 279
282 283 278 282 285 285 285 285 285 287 290 290 288 286 289 285 284 281 283 281 278 279 280 279 279 275 280 283 284 283 282 283 283 283 283 282 282 281 280 280 281 281 280 279
282 282 281 286 284 285 285 285 285 289 291 288 289 285 283 284 284 277 274 276 276 282 280 277 276 281 281 281 282 282 283 284 284 284 284 283 283 281 279 279 279 278 278 276
282 283 286 284 284 284 285 288 288 294 289 288 285 284 281 278 275 274 276 278 283 280 276 276 275 277 280 281 281 282 284 284 283 283 282 280 280 279 279 276 274 275 274 274

GFSNW_sfc_thetae_006.txt.gz
Theta_e
303 302 303 305 306 306 303 296 288 306 308 290 291 285 287 293 293 295 295 292 291 288 286 284 282 282 286 291 291 287 290 287 280 282 288 291 288 285 284 278 273 277 273 278
303 302 303 304 306 307 300 292 296 306 303 286 287 289 290 292 293 293 293 291 293 294 289 283 284 286 291 293 291 288 290 286 279 280 285 289 286 287 286 285 284 276 273 278
302 302 303 304 306 307 302 293 289 295 297 296 290 288 288 288 295 294 296 294 293 291 290 288 285 286 291 293 293 296 294 288 283 278 283 286 284 286 287 285 280 280 280 283
302 302 302 304 306 307 303 297 290 292 285 290 291 292 290 288 289 295 296 294 293 292 289 289 287 288 289 293 296 295 292 284 286 286 287 287 287 287 286 284 284 280 283 284
302 301 303 304 306 307 299 294 292 294 291 293 289 289 289 289 291 294 292 291 293 293 291 290 285 289 289 289 292 291 293 284 286 284 288 287 285 288 289 288 287 286 286 285
301 301 303 304 306 306 295 297 299 295 293 292 288 288 289 290 295 295 296 295 294 293 295 297 297 297 295 295 293 290 288 285 285 281 288 288 282 286 287 289 290 288 284 288
301 301 303 304 305 306 300 298 298 295 289 292 290 292 291 293 295 292 294 297 295 298 302 301 297 294 293 294 295 296 288 285 286 282 286 281 290 294 292 289 292 292 291 294
301 301 302 303 305 306 301 301 298 298 290 293 292 295 293 294 296 295 295 297 299 302 300 294 289 289 289 290 293 293 294 288 286 283 284 287 290 294 290 288 289 294 293 295
301 301 302 302 304 305 302 301 303 300 294 291 296 295 295 293 293 293 296 297 299 302 296 292 286 281 285 282 286 288 292 292 287 286 282 277 285 295 299 297 288 296 296 296
301 301 301 302 304 305 303 301 304 301 296 298 299 295 294 297 294 291 291 292 294 298 293 289 287 285 287 281 282 286 287 286 285 285 284 284 289 290 297 288 288 291 298 297
301 301 301 301 303 305 303 300 305 303 297 298 300 300 295 294 294 291 295 294 295 294 290 290 290 288 286 282 284 284 285 283 283 283 280 278 291 291 287 291 290 290 291 290
301 301 301 301 301 304 304 297 304 306 299 297 301 301 301 301 301 298 297 296 296 297 294 291 293 289 285 285 281 285 284 288 286 286 285 291 291 291 293 292 291 289 290 290
301 301 301 300 301 303 303 298 301 303 300 299 297 297 301 305 305 305 296 298 300 299 301 296 292 289 289 284 285 283 287 291 289 289 289 290 290 291 290 290 289 290 291 290
301 301 299 300 301 302 302 297 299 298 300 294 293 301 298 301 303 303 304 302 303 302 301 298 293 290 290 287 288 288 290 290 289 289 290 290 290 290 289 289 290 290 291 291
298 298 299 300 300 301 300 298 299 301 299 295 296 298 298 301 301 301 303 302 300 299 297 296 294 292 290 288 288 286 291 292 290 289 293 292 291 290 290 289 289 290 289 289
298 298 298 298 299 300 295 293 304 306 305 298 293 301 299 301 302 302 301 301 300 299 298 298 299 298 294 286 285 292 291 292 294 294 290 289 289 290 289 289 289 289 288 289
297 298 298 298 298 295 291 292 299 301 300 298 291 290 300 301 301 301 301 302 300 300 298 298 297 297 297 293 289 293 293 292 290 290 291 289 289 289 289 289 289 289 287 287
298 298 298 299 299 298 294 298 301 301 297 300 289 290 294 301 297 296 302 299 300 299 297 297 295 295 295 290 293 290 289 289 289 288 289 291 289 288 287 288 288 286 286 286
300 298 299 299 296 292 296 299 300 302 301 292 291 287 285 298 297 296 298 299 294 298 295 295 294 292 288 293 293 292 290 291 288 287 288 288 288 286 287 287 286 286 285 284
297 294 290 290 291 297 297 299 298 296 297 297 292 292 290 295 295 293 294 294 291 286 292 293 291 290 295 295 295 295 292 289 288 286 282 283 284 286 286 286 287 286 286 284
289 285 287 292 296 293 296 290 291 292 289 294 293 290 291 293 290 291 291 288 287 285 285 289 286 287 291 291 294 293 291 290 290 290 289 289 289 286 285 284 284 284 283 282
291 290 293 291 287 286 285 285 287 289 285 291 292 290 290 290 293 291 289 284 286 284 286 286 284 286 286 287 289 289 289 289 289 288 288 287 287 287 285 284 283 282 281 281
292 288 284 283 283 281 283 281 284 286 288 289 289 286 288 288 288 287 286 285 284 282 283 283 284 282 285 285 286 286 287 288 286 285 285 285 284 285 284 282 282 281 280 279
283 279 274 279 280 283 284 283 284 285 286 288 289 282 284 289 283 284 284 286 284 281 279 278 279 279 283 285 285 285 285 285 284 283 283 283 283 282 282 282 282 281 280 279
281 281 274 278 285 285 285 285 285 287 290 288 288 286 287 284 280 281 284 281 279 279 279 279 278 275 280 283 283 283 282 282 281 282 282 281 282 282 281 281 281 281 280 279
283 279 275 284 280 279 285 285 285 288 291 288 288 286 285 285 280 278 278 276 276 281 278 277 274 280 281 281 282 281 282 282 283 283 283 282 282 281 280 280 280 279 278 277
281 282 285 283 281 284 284 287 288 293 289 286 286 284 284 279 276 275 277 279 282 282 275 281 275 275 279 280 281 282 282 282 282 282 282 281 281 281 280 277 275 276 275 275

GFSNW_sfc_thetae_009.txt.gz
Theta_e
304 303 303 303 305 306 303 294 288 302 306 288 287 286 287 294 291 295 294 292 290 287 287 286 286 283 285 291 291 287 289 286 280 281 288 291 289 286 285 279 276 279 277 278
303 303 302 303 305 307 300 291 294 304 301 285 286 289 290 293 292 293 293 291 293 292 287 284 285 285 291 292 290 287 290 285 277 278 285 288 286 287 287 286 284 278 275 278
303 303 302 303 306 307 303 293 288 294 297 295 288 287 287 288 295 294 295 293 293 291 289 289 285 286 291 292 292 296 294 287 280 279 283 286 284 285 287 285 280 280 280 282
303 302 304 304 305 308 303 296 290 292 286 289 290 290 289 288 288 293 295 292 293 290 288 289 287 288 289 292 294 294 291 283 285 286 287 286 286 286 286 284 284 280 283 283
303 301 304 305 306 308 298 290 292 292 290 293 290 288 286 287 290 292 291 289 293 294 290 290 286 288 288 288 291 292 293 285 286 284 288 287 284 287 287 287 286 285 285 285
303 301 303 305 306 306 296 296 298 294 292 290 287 285 290 289 293 294 296 294 294 293 294 297 297 298 297 294 291 290 289 286 284 281 288 287 284 286 287 288 289 287 283 288
302 302 302 304 305 305 301 298 297 294 289 290 289 289 291 292 293 291 295 296 295 298 302 300 299 297 295 294 293 294 290 286 285 282 285 280 290 295 293 289 290 292 291 292
302 302 301 302 304 305 301 301 297 296 289 291 290 290 290 290 292 295 295 296 297 301 297 291 290 290 289 289 292 292 294 290 285 282 283 287 289 292 290 289 288 293 292 294
302 302 301 302 303 304 302 301 303 299 293 290 295 293 293 290 290 293 295 298 300 298 294 291 285 282 283 282 284 289 293 293 287 286 282 280 287 293 296 296 288 294 294 295
301 302 301 302 302 303 302 300 304 299 295 295 294 292 292 297 295 292 292 292 292 297 292 288 286 285 286 281 282 285 287 287 285 285 284 285 291 292 298 287 288 291 296 296
301 301 301 302 301 302 301 299 304 297 298 297 299 298 294 293 293 291 293 293 294 294 289 289 288 285 286 282 284 284 284 283 282 285 283 278 291 293 289 291 291 291 294 294
301 301 301 300 300 301 303 296 301 301 299 298 302 302 301 301 300 297 297 295 296 296 292 292 293 289 286 284 281 285 284 287 285 286 285 291 292 292 293 292 291 291 292 291
300 300 299 299 300 301 301 297 298 298 299 296 296 296 302 303 303 305 296 296 300 298 301 297 293 289 289 283 284 283 287 290 289 289 290 291 292 292 291 290 290 291 291 290
299 299 299 299 299 300 300 296 298 296 294 293 292 300 296 301 303 303 304 302 303 302 301 296 294 288 290 286 287 287 290 291 290 289 291 291 291 291 290 289 290 289 290 289
298 298 298 299 299 299 298 296 298 299 294 293 295 297 297 300 301 301 302 302 300 299 296 294 293 294 289 286 286 286 290 292 290 289 293 292 291 290 290 289 288 289 289 287
298 298 297 298 298 298 294 290 300 301 301 296 291 300 297 301 302 300 300 300 300 299 297 296 299 298 294 286 285 293 292 292 294 293 290 290 289 290 290 288 288 289 288 288
298 298 298 298 299 295 290 290 297 299 298 296 290 290 300 301 301 300 301 302 300 299 297 295 297 297 297 293 287 295 294 294 292 291 291 289 289 289 289 289 289 289 287 287
298 298 298 299 299 298 293 297 300 300 295 298 289 289 293 301 296 295 301 299 299 299 297 297 295 295 295 291 295 293 290 290 290 289 289 290 289 288 287 288 288 286 285 285
298 298 298 298 295 291 294 299 299 300 297 292 291 287 283 299 297 296 298 299 293 298 294 295 294 292 289 293 293 292 290 290 291 287 288 288 288 287 287 287 286 285 285 285
297 293 289 288 291 297 297 299 295 294 297 297 292 291 290 295 293 293 294 294 292 287 293 293 290 291 296 296 295 295 292 289 288 286 282 283 284 286 286 286 287 286 286 285
288 285 285 291 296 294 292 289 291 292 289 295 291 289 290 293 290 292 290 288 287 286 285 289 287 286 290 290 291 295 292 290 290 290 290 290 290 288 286 285 286 285 285 283
290 290 293 292 287 285 284 285 288 288 286 291 292 290 289 290 291 291 289 283 286 284 284 286 284 286 286 286 289 290 290 289 290 289 289 289 289 288 287 285 284 283 282 281
291 288 281 281 283 281 282 281 284 286 288 289 289 287 290 288 288 286 283 284 284 282 283 283 282 284 285 286 287 287 288 289 287 286 286 286 285 285 285 282 282 282 280 279
280 280 271 280 281 281 283 283 284 286 286 288 289 287 287 287 282 283 286 284 284 281 279 275 279 280 283 284 284 286 285 285 284 283 284 284 283 282 282 282 282 281 280 279
281 280 270 279 284 285 285 285 285 287 289 289 288 287 286 279 283 282 284 282 280 282 278 278 277 276 279 283 283 283 282 282 281 282 282 281 282 281 279 280 281 281 279 278
283 281 274 283 274 274 284 284 284 289 291 288 288 286 285 284 283 279 280 279 278 281 280 277 275 280 282 282 283 282 282 282 282 282 282 282 282 281 280 280 280 280 279 277
280 281 285 283 280 279 283 284 286 292 288 286 286 284 285 280 276 277 278 278 283 284 278 277 279 275 279 281 282 282 282 282 282 282 282 281 281 281 280 277 277 276 276 276

GFSNW_sfc_thetae_015.txt.gz
Theta_e
304 305 304 305 306 309 305 294 287 303 306 291 292 289 291 296 294 298 295 295 293 292 292 290 291 291 292 297 297 291 294 289 284 287 293 295 293 289 288 282 281 283 283 282
304 304 304 305 307 308 303 292 292 303 302 288 289 290 293 295 294 296 295 293 295 295 292 288 292 292 296 296 296 293 294 288 282 285 290 293 289 291 291 289 288 282 280 283
304 304 303 306 308 308 304 294 287 293 298 299 293 291 292 292 299 297 297 295 296 294 292 294 291 291 294 296 296 297 297 290 286 283 288 291 286 289 290 288 283 284 284 286
303 304 303 305 307 307 303 297 292 295 289 293 294 295 294 292 291 297 298 294 294 293 289 290 290 293 294 295 297 295 293 286 288 289 290 290 289 288 289 285 287 283 286 287
303 303 304 305 306 306 300 292 292 297 295 296 293 293 293 292 294 295 293 293 295 295 292 293 290 293 293 292 295 293 294 287 288 284 289 290 288 291 291 290 290 288 288 287
303 303 304 305 305 304 297 299 299 296 294 295 293 293 294 293 296 297 298 297 296 294 295 298 299 300 298 297 294 292 291 287 285 283 290 289 286 290 291 291 292 290 286 291
303 303 303 304 303 304 299 300 298 294 290 294 293 294 295 294 296 295 298 299 296 300 305 303 302 300 298 298 296 296 290 287 287 284 287 282 292 296 296 293 295 296 294 296
302 303 303 303 302 303 299 300 298 295 292 294 294 295 295 297 297 296 297 299 302 304 301 295 291 292 292 294 296 295 296 290 286 284 284 289 293 296 294 292 292 297 294 297
301 302 302 301 301 302 300 301 301 297 293 294 298 295 297 294 295 296 297 302 306 303 298 293 285 285 289 288 290 296 295 293 289 287 282 282 293 299 300 299 290 298 297 299
300 300 300 300 301 301 299 300 300 296 293 300 300 295 296 299 298 296 298 299 299 302 294 289 287 287 292 287 288 288 289 289 285 285 284 288 297 299 300 289 291 298 297 300
300 300 299 300 300 300 299 298 301 294 290 294 302 302 300 300 300 295 299 297 297 296 291 291 290 289 291 290 293 292 290 287 286 287 284 283 300 299 294 298 301 299 299 299
300 300 300 299 299 299 299 294 300 300 291 293 303 307 307 306 306 302 301 299 298 299 293 292 293 290 292 292 287 296 290 295 293 293 294 302 303 301 303 302 299 299 299 300
300 300 300 300 299 299 298 296 298 295 292 296 300 302 307 309 308 310 300 301 303 301 304 297 294 290 294 289 291 294 297 300 295 296 300 301 303 303 301 299 298 299 300 299
300 300 299 300 299 299 299 296 298 295 290 288 298 306 304 308 308 307 308 306 305 304 303 296 293 290 297 293 295 295 298 298 297 297 301 303 301 300 299 297 297 298 299 297
300 299 299 300 299 299 299 299 299 298 290 289 296 303 303 306 307 305 306 306 304 301 297 294 293 296 296 297 296 294 300 298 296 295 302 301 300 299 298 297 295 296 294 292
300 299 299 299 298 298 295 290 297 298 297 289 293 303 301 303 305 305 304 304 302 301 297 296 297 300 296 291 292 299 302 303 304 301 301 300 298 298 298 296 295 294 293 292
299 298 299 299 298 296 290 289 295 298 297 290 292 294 301 303 302 302 302 303 302 300 298 295 297 297 298 293 290 299 302 304 303 304 300 298 297 297 296 295 294 294 292 292
298 299 297 298 299 298 293 297 300 299 294 293 290 292 296 302 297 297 302 298 300 299 298 298 295 297 296 291 298 300 302 303 303 302 300 298 298 296 294 293 292 290 290 290
298 297 297 299 296 292 294 298 299 300 294 289 293 290 289 301 298 300 299 301 294 300 295 296 296 294 290 296 299 301 303 301 302 299 297 296 295 294 293 292 292 290 289 289
296 296 293 289 293 297 298 294 292 292 293 293 293 298 293 298 297 296 297 297 294 289 295 296 292 291 299 301 302 303 303 302 297 293 290 290 290 291 292 292 293 292 290 289
293 288 287 293 297 294 292 287 286 290 289 295 297 297 294 300 294 295 297 293 291 288 291 291 291 291 297 297 296 297 298 300 299 300 299 296 296 293 293 293 293 291 290 288
291 291 294 293 288 287 286 285 287 289 288 295 295 295 297 298 299 296 294 290 290 286 291 288 286 294 295 293 292 293 295 298 299 297 296 297 296 295 294 292 291 290 289 286
295 290 286 286 288 284 284 282 284 286 288 288 290 291 295 295 296 294 292 286 287 291 287 286 291 296 293 290 290 292 293 295 295 293 295 295 294 294 292 290 290 288 286 285
286 282 281 283 283 283 283 283 285 288 287 288 290 290 292 292 292 292 287 290 289 284 282 285 294 292 289 290 291 291 291 292 292 291 291 291 290 290 290 289 288 286 285 285
284 284 280 282 285 286 286 287 287 288 290 289 290 289 291 289 288 289 288 285 283 285 286 292 290 288 288 289 290 290 290 289 289 289 289 288 288 287 286 287 287 285 284 284
285 283 281 284 283 285 286 286 285 290 289 289 288 287 287 287 289 284 284 283 283 289 287 289 289 287 288 288 289 289 289 289 289 289 288 288 287 286 286 286 285 284 284 283
282 282 287 286 283 284 286 286 287 290 288 285 286 285 286 287 285 284 289 286 287 285 286 287 287 285 286 286 287 287 287 288 288 287 287 287 286 286 284 282 283 282 282 281

GFSNW_sfc_thetae_021.txt.gz
Theta_e
305 305 305 305 308 310 302 295 286 300 304 287 289 285 287 295 295 298 296 294 290 287 288 287 286 285 290 294 295 289 293 287 278 282 289 291 288 285 284 278 273 277 274 279
305 305 305 305 306 308 300 289 293 301 297 283 287 291 293 296 294 295 295 292 293 292 287 285 288 290 292 295 294 289 292 283 274 280 286 288 286 287 288 287 285 278 276 279
304 305 305 305 306 308 300 294 282 289 293 292 291 290 291 291 297 296 296 294 293 290 290 291 288 288 293 294 295 299 296 287 278 276 279 286 282 286 287 286 281 280 281 283
303 304 304 305 306 307 300 295 287 292 282 287 289 292 292 290 291 296 296 292 292 291 287 288 287 289 290 293 297 293 292 280 282 285 287 286 285 285 287 284 286 282 285 286
302 302 302 304 305 305 296 292 291 293 289 292 289 291 289 291 292 294 291 291 293 293 290 291 288 290 289 288 290 289 291 278 285 278 286 286 283 286 288 288 288 288 288 288
302 301 301 303 304 301 296 298 299 295 291 288 286 287 291 293 295 295 297 295 293 293 295 296 295 297 296 294 290 288 289 284 280 275 286 284 281 285 288 292 293 292 287 292
302 301 301 301 302 301 297 298 296 292 287 288 289 294 293 293 295 293 296 296 295 298 300 299 297 295 294 294 293 293 289 287 286 280 281 275 290 294 294 292 294 295 295 295
301 301 301 301 301 301 296 299 295 293 289 290 293 294 292 294 294 294 295 297 298 300 297 291 288 287 290 291 293 293 294 288 285 282 281 283 288 294 292 290 290 294 292 293
302 301 301 301 300 300 292 298 298 293 290 291 295 294 293 289 287 291 295 300 301 299 294 290 281 281 288 286 288 294 293 293 288 285 280 276 288 294 297 294 287 294 294 294
302 301 300 301 300 300 293 292 297 294 290 293 293 293 293 297 292 290 292 294 295 297 290 286 283 280 288 283 285 286 288 288 285 285 283 285 291 293 298 285 286 293 294 294
302 301 301 301 301 300 293 290 295 292 289 289 294 296 294 297 296 292 295 292 293 292 287 287 286 285 287 285 288 288 286 285 284 286 283 278 293 293 290 293 294 293 293 292
301 302 301 301 300 300 297 287 294 296 289 288 295 295 296 297 299 297 298 294 293 294 289 288 289 286 288 286 282 291 287 288 287 287 286 292 295 296 295 295 293 292 293 292
301 301 300 300 300 300 298 289 290 293 286 288 290 292 301 301 301 307 298 298 298 297 297 291 292 289 291 285 285 287 292 295 292 291 293 294 295 294 293 292 291 293 295 293
300 300 300 301 301 300 299 289 291 290 286 282 287 301 301 304 306 306 306 303 301 300 298 294 293 290 293 289 290 289 292 294 292 290 295 294 293 292 293 292 293 292 293 292
300 300 300 300 300 300 296 291 292 293 285 284 286 292 302 303 303 304 304 301 299 298 294 293 291 294 293 293 292 289 292 290 290 289 297 294 293 292 293 292 291 291 290 289
300 300 300 299 300 299 294 284 296 296 295 285 283 298 299 302 302 301 301 302 301 300 297 295 297 299 295 290 288 293 294 294 296 295 296 295 293 293 292 291 291 291 289 289
300 300 299 299 299 296 289 284 292 297 294 286 283 290 300 302 302 301 301 301 299 299 297 295 295 296 297 293 288 293 295 298 299 297 296 293 293 292 291 291 291 291 288 287
300 299 299 299 299 296 291 291 297 296 288 287 283 290 295 302 297 295 301 298 299 298 296 297 294 295 295 290 293 296 298 298 297 296 296 295 293 290 289 289 288 287 286 286
299 298 299 294 291 289 292 298 297 295 289 284 287 287 287 299 297 298 296 298 292 297 293 294 295 292 289 293 295 296 294 295 296 292 292 291 290 289 288 288 287 286 285 285
298 293 290 287 291 298 298 292 288 287 288 288 286 295 290 295 295 293 295 295 292 287 293 295 291 291 295 291 291 290 290 291 292 291 287 284 283 286 287 287 288 288 287 286
290 287 286 291 297 293 290 285 284 287 285 291 293 294 291 296 291 291 293 288 288 286 288 288 285 289 288 289 288 290 291 291 292 293 294 294 292 289 289 288 288 288 287 285
290 290 293 292 288 286 284 283 286 286 286 291 292 291 293 292 294 292 292 287 287 283 289 286 284 288 286 287 287 289 290 291 291 292 293 293 293 291 291 289 288 287 286 284
294 289 284 284 286 281 280 280 284 285 286 287 288 287 289 291 292 290 289 285 285 286 285 284 285 285 286 286 287 287 289 290 290 290 292 293 292 292 292 289 287 285 284 284
284 281 278 280 280 282 282 283 284 286 287 287 289 288 286 289 287 289 286 288 286 282 281 281 283 283 285 285 286 286 286 287 288 288 289 290 291 289 289 288 286 285 284 283
281 281 276 280 284 284 285 285 286 287 289 288 288 287 290 286 285 287 285 283 281 283 281 281 279 283 284 284 284 284 285 286 286 287 286 287 288 287 286 286 286 286 283 282
282 281 279 283 281 282 283 283 284 287 288 288 287 286 285 285 286 284 282 282 280 282 278 278 281 282 283 283 283 284 285 285 286 286 287 287 286 285 284 284 283 283 282 281
280 279 284 283 282 282 274 284 286 288 287 285 285 284 284 285 283 282 285 282 281 282 283 277 280 280 282 282 282 283 283 284 284 285 285 285 285 283 282 281 281 280 280 280

GFSNW_sfc_thetae_027.txt.gz
Theta_e
304 304 304 305 306 310 299 289 281 296 298 285 290 287 290 294 293 294 293 290 287 285 286 285 283 284 287 292 291 286 289 283 275 282 287 289 286 284 282 274 271 273 273 277
303 303 303 304 305 308 294 287 287 296 295 282 287 289 290 292 292 292 291 288 289 289 286 283 285 286 291 293 291 288 289 279 271 278 283 286 283 285 284 282 278 271 272 277
303 303 303 303 304 307 295 288 282 288 291 289 288 287 288 288 294 292 292 289 290 288 286 287 285 286 291 293 293 298 294 283 277 274 277 281 278 283 285 282 275 277 278 280
303 303 302 302 303 305 295 288 287 290 284 286 286 287 289 288 289 294 292 289 289 288 285 286 285 287 288 292 298 293 289 278 279 283 285 284 283 284 284 279 282 278 281 282
303 303 302 302 303 303 294 288 290 293 288 288 286 288 287 289 290 291 290 288 290 289 287 288 286 288 286 287 289 290 288 279 284 278 284 284 282 284 285 285 285 284 285 284
303 302 302 302 302 299 291 293 297 293 289 286 284 285 288 290 292 293 294 292 291 291 293 293 292 291 291 290 288 286 285 283 281 277 282 283 279 283 284 285 287 286 282 288
303 302 302 302 301 298 296 296 295 290 284 286 286 289 290 291 292 289 293 294 292 295 298 297 295 293 291 291 289 291 285 286 284 279 280 273 284 289 289 287 289 289 290 292
303 303 302 302 301 300 290 294 290 291 286 289 287 290 290 291 291 291 293 295 296 298 295 289 286 287 290 290 291 292 292 288 282 279 280 281 285 289 289 288 288 292 292 294
301 302 302 301 302 301 289 294 290 289 288 285 291 289 289 286 285 289 292 296 298 296 292 288 282 279 282 284 288 293 292 291 287 284 279 275 284 292 294 293 284 293 293 293
302 301 301 301 301 301 291 288 291 286 285 290 291 286 290 291 287 287 288 291 291 293 287 284 282 279 286 283 284 285 287 288 284 284 282 282 289 291 295 282 285 292 293 293
304 302 301 302 301 300 295 289 291 286 281 283 287 291 288 291 292 287 290 290 290 288 285 284 284 283 285 282 286 284 286 284 285 285 283 278 293 294 288 292 292 293 292 291
303 303 301 301 300 300 296 288 293 294 286 283 288 289 289 290 293 290 294 291 290 291 286 285 285 284 286 283 280 286 286 288 285 285 286 292 294 292 294 293 292 291 291 292
302 303 302 301 300 300 299 292 293 291 287 283 283 283 288 292 292 294 288 295 298 293 293 288 287 285 287 282 283 283 288 292 290 288 291 292 294 294 293 292 291 292 293 292
302 303 302 301 300 300 300 293 293 292 288 279 279 289 288 294 294 294 293 294 300 298 296 289 287 285 289 286 287 288 289 291 288 288 291 293 293 294 294 293 292 291 291 291
301 302 302 300 301 300 297 293 294 295 287 278 280 285 287 288 288 294 296 294 296 296 294 291 289 292 289 288 288 286 289 288 286 286 291 292 293 296 294 292 291 291 290 288
301 302 301 300 300 299 294 287 293 293 293 285 276 285 286 291 292 298 297 298 300 297 295 292 293 297 292 288 288 292 291 294 296 292 294 296 296 294 293 291 290 290 290 289
301 302 300 299 299 295 288 283 288 297 294 285 279 281 290 291 299 300 300 301 298 297 297 293 293 295 295 292 287 291 296 296 295 296 294 292 293 293 292 291 290 291 288 287
302 300 299 298 299 295 291 293 296 295 289 286 279 281 286 299 295 295 300 296 296 297 296 294 293 294 295 289 289 288 290 290 291 292 292 292 293 291 289 288 287 286 286 285
300 298 299 293 288 284 288 298 298 295 289 282 283 280 286 300 296 297 296 297 292 297 293 292 293 292 289 286 286 288 288 286 287 289 289 290 291 292 288 287 286 285 284 284
297 292 287 284 287 297 297 292 288 286 287 285 281 287 288 296 295 293 294 295 291 285 291 294 290 290 289 288 288 288 288 286 286 284 283 283 282 283 287 286 286 286 285 284
288 284 284 287 295 289 289 285 283 285 283 286 286 289 292 297 291 292 294 288 288 285 288 290 287 288 287 287 287 287 285 285 285 286 288 289 288 288 289 288 286 286 285 284
288 288 293 291 288 285 282 283 285 285 284 290 289 291 292 294 295 291 291 286 286 283 290 286 284 285 285 284 283 284 284 284 286 288 289 289 289 290 290 289 287 285 285 285
291 289 284 283 284 278 278 277 282 284 286 287 287 288 291 293 293 288 287 285 284 286 285 283 285 283 282 282 283 283 284 286 287 288 289 289 290 290 291 290 288 287 286 285
283 281 277 279 277 279 277 280 279 286 286 287 288 288 288 289 287 288 285 287 286 282 280 281 281 282 281 282 283 283 283 284 285 286 287 287 289 289 288 287 287 285 283 283
277 281 273 273 281 283 284 284 284 287 288 287 287 288 289 286 286 287 285 283 281 282 281 279 282 278 281 282 282 282 282 283 283 284 285 286 287 288 287 287 286 285 283 283
276 277 275 280 277 276 282 282 283 287 287 287 286 285 285 286 285 284 283 281 280 278 276 282 278 280 281 281 281 282 282 283 283 283 284 284 284 284 286 287 287 286 285 284
271 275 281 279 279 278 279 284 285 286 286 285 285 283 284 285 282 281 284 283 282 277 282 279 278 278 279 280 281 281 282 282 282 281 282 282 282 283 283 283 283 284 284 283

GFSNW_sfc_thetae_030.txt.gz
Theta_e
305 304 304 305 306 308 297 288 283 295 297 287 291 288 290 294 292 294 291 288 287 284 284 282 283 284 286 291 291 286 288 282 274 282 286 288 285 283 281 273 271 273 272 276
304 304 304 304 305 307 295 286 286 295 294 282 286 289 290 292 291 291 289 287 288 288 285 283 284 286 290 292 290 287 288 279 272 278 283 285 283 284 283 281 277 270 271 277
304 304 303 303 304 306 294 287 282 288 290 288 289 288 287 288 293 291 291 288 289 287 285 287 284 285 291 291 292 297 292 282 278 274 277 282 279 283 283 281 271 276 277 279
304 303 303 303 303 305 294 287 287 291 285 285 283 285 287 287 288 292 290 287 288 287 283 285 284 287 288 292 297 292 289 277 278 282 284 283 282 283 283 279 280 276 279 280
304 303 303 302 302 303 293 288 289 293 289 286 283 285 286 288 289 290 287 286 289 288 285 286 285 287 286 286 289 288 287 281 284 276 283 283 281 283 284 284 284 284 284 284
304 304 303 302 302 299 294 295 296 293 288 284 282 284 286 289 291 291 293 291 290 289 291 292 290 291 291 289 288 286 286 282 276 273 281 282 278 282 284 285 286 285 281 287
303 303 304 302 302 297 293 294 294 290 283 283 285 288 289 289 291 288 292 293 290 294 297 295 294 290 289 290 288 289 284 283 282 273 279 272 283 288 288 286 287 288 288 289
302 302 302 302 302 300 290 290 288 290 284 287 286 288 288 290 289 290 291 293 294 296 294 289 286 288 289 289 291 291 291 288 280 274 280 281 285 287 287 287 288 290 289 291
303 301 301 302 301 301 290 290 289 287 286 281 290 288 287 285 284 287 291 295 297 295 291 288 282 280 281 283 287 292 292 290 282 282 278 274 284 292 294 292 285 292 292 292
303 303 301 301 302 301 292 289 290 285 280 285 287 288 288 292 286 285 287 290 290 292 288 285 282 279 284 281 282 284 286 287 284 283 279 282 288 291 295 283 285 291 292 292
302 303 303 301 301 300 294 290 291 286 281 283 285 288 286 286 292 287 289 289 289 287 285 284 283 281 283 281 284 285 284 283 283 284 280 278 292 292 289 292 291 292 291 290
302 303 303 303 301 300 298 291 294 294 287 284 288 289 289 288 288 287 291 289 288 289 285 283 284 283 283 282 279 284 282 285 283 284 283 290 293 293 295 294 293 290 289 290
300 301 302 304 301 301 299 293 293 290 288 286 284 284 289 290 289 292 285 294 297 291 291 288 287 284 285 281 281 281 286 291 288 287 289 290 293 293 294 293 291 291 291 291
301 301 301 302 301 301 300 295 294 292 289 280 280 287 284 290 291 290 291 290 293 295 295 289 287 284 288 284 285 285 287 290 288 288 290 291 292 295 294 294 292 292 291 291
302 300 302 302 301 300 296 292 292 294 288 280 281 286 288 288 288 289 291 289 288 291 294 291 287 288 288 286 286 284 288 287 286 285 289 290 292 294 294 293 292 292 290 288
302 301 302 301 300 299 293 287 289 291 294 284 277 283 283 287 287 285 285 290 290 293 295 292 291 293 289 285 287 290 290 291 293 292 291 293 294 294 292 292 292 291 290 290
301 302 301 299 299 294 289 284 287 296 293 284 275 278 288 289 288 286 289 295 296 296 295 293 291 292 292 289 286 290 290 289 290 292 293 293 293 291 292 291 291 291 288 288
301 300 299 299 299 296 290 290 296 296 289 286 277 279 284 292 290 288 296 292 296 297 294 295 289 292 291 288 290 288 288 288 291 290 290 290 291 291 290 288 287 286 286 285
301 298 299 294 289 284 286 298 298 294 289 281 281 277 281 295 289 295 297 298 290 295 293 293 292 288 287 288 286 285 286 286 285 286 286 286 286 288 291 289 286 285 286 284
296 292 289 286 287 296 297 292 287 286 287 285 280 286 282 295 294 292 293 293 290 286 291 294 291 288 286 286 286 286 286 285 284 282 283 281 283 284 286 288 288 286 286 284
288 283 284 288 294 288 289 284 283 284 282 285 284 286 288 296 291 291 294 288 288 284 287 290 287 287 286 284 284 285 283 283 284 285 285 286 286 286 287 288 289 287 286 284
289 287 291 291 288 285 282 281 285 284 283 289 287 289 292 294 295 290 291 286 287 283 291 287 282 284 282 282 282 283 283 283 285 288 289 289 289 289 289 290 291 289 286 284
291 289 285 283 283 278 278 274 281 284 286 286 286 285 291 293 293 289 288 285 285 287 285 284 280 281 281 281 282 282 283 286 286 286 287 288 288 290 288 288 290 288 286 285
280 280 275 278 277 280 278 280 276 285 286 286 287 287 288 289 287 288 284 286 285 282 280 278 276 279 281 282 282 282 282 283 283 285 285 286 287 288 289 287 286 286 285 284
275 279 273 275 280 278 279 281 283 282 288 287 287 287 289 286 285 287 284 283 281 282 279 276 276 282 280 281 281 282 282 282 282 283 283 284 284 285 287 287 286 284 283 283
275 278 276 279 277 276 277 277 280 287 286 287 286 285 285 285 283 283 282 281 279 279 277 277 281 280 280 281 281 281 282 282 282 282 282 283 283 282 283 286 287 286 285 284
273 274 279 278 276 278 278 282 283 286 285 283 284 283 283 285 282 281 284 282 281 280 281 282 280 279 279 279 280 281 281 281 281 281 281 281 281 282 282 280 282 284 285 285

GFSNW_sfc_thetae_033.txt.gz
Theta_e
306 305 305 305 305 306 298 288 283 295 296 287 290 287 290 294 291 293 289 288 286 284 285 283 283 284 286 291 291 287 288 284 279 283 287 289 287 284 282 277 274 276 276 278
305 305 304 304 304 306 297 286 286 294 294 286 287 290 291 292 291 290 289 286 288 287 284 283 284 286 290 292 290 288 288 281 274 279 283 287 285 285 283 281 280 275 275 279
305 305 304 304 303 306 294 286 281 288 289 287 285 285 285 287 292 291 290 288 289 286 284 286 284 285 291 291 291 297 292 283 279 275 278 282 280 283 283 282 276 277 278 280
305 305 304 303 303 304 293 287 287 291 283 284 283 284 286 286 287 291 289 286 287 286 282 284 283 286 288 291 296 291 288 279 280 283 284 284 284 284 283 280 281 279 281 281
305 304 304 303 303 303 293 287 288 292 289 285 282 285 284 286 288 289 286 286 288 287 285 285 284 286 285 286 289 288 287 281 283 277 284 284 282 284 284 284 284 283 284 284
304 303 304 303 303 299 292 294 296 292 288 283 281 283 285 288 290 290 292 289 289 288 290 292 291 290 290 289 287 286 287 282 277 274 282 282 279 282 284 285 285 286 282 287
304 303 302 303 302 297 291 290 292 289 284 283 284 286 287 287 289 287 291 292 289 293 295 293 292 290 289 290 288 289 285 284 279 275 279 273 283 288 288 286 287 288 288 289
304 303 302 301 302 300 291 289 287 289 280 285 284 287 286 288 289 289 290 292 294 296 292 288 285 286 288 289 291 291 291 288 280 275 276 281 284 286 286 286 288 290 289 290
303 303 302 302 302 300 292 290 290 286 283 280 289 287 288 284 282 286 289 293 295 293 290 289 282 279 281 283 287 292 291 289 282 282 277 274 284 292 294 293 287 294 291 291
302 302 303 303 301 300 293 290 291 286 282 283 284 283 287 292 289 284 285 288 290 291 288 286 284 279 283 280 282 285 286 287 282 283 280 281 288 293 295 286 287 293 293 293
303 303 302 303 302 300 296 292 291 287 282 283 285 286 286 285 289 288 288 290 289 286 286 286 285 281 283 281 283 285 284 282 283 283 280 277 291 291 290 294 293 294 293 292
303 302 301 301 302 301 298 291 293 294 287 285 288 289 288 287 287 284 286 288 287 289 284 283 283 283 282 281 279 283 282 284 283 283 283 289 292 294 295 295 294 293 291 292
303 302 301 300 301 302 299 293 293 291 288 286 286 285 289 291 289 290 282 290 296 291 289 286 285 284 285 281 281 281 286 289 286 286 289 290 293 295 294 294 293 292 292 292
303 302 301 301 301 302 300 294 293 292 287 282 281 287 284 288 289 289 289 288 291 288 291 287 287 284 287 283 285 284 287 289 287 286 289 291 291 294 294 294 293 292 292 292
303 301 299 301 302 301 297 293 292 293 288 281 281 286 288 288 287 287 287 286 285 285 286 292 288 286 286 284 285 283 288 288 287 286 290 291 291 294 294 293 292 293 292 290
302 301 301 302 300 299 293 286 289 291 294 283 277 283 282 284 286 287 286 287 287 286 289 292 291 291 288 282 283 288 289 291 292 291 292 293 294 294 293 290 291 291 291 290
301 301 301 299 299 294 287 284 287 295 292 283 273 274 286 291 285 284 283 285 288 288 288 292 290 290 290 286 282 289 290 291 290 291 291 291 292 290 290 290 290 291 289 289
301 301 299 300 299 296 289 290 297 295 289 285 276 274 282 289 285 282 288 284 286 289 291 295 290 291 290 285 288 287 288 288 288 288 289 290 289 288 289 291 288 287 287 286
301 298 298 294 289 285 286 297 298 294 288 278 278 274 277 293 289 290 289 291 285 293 289 293 291 290 287 287 287 286 285 285 285 286 286 286 286 285 286 287 289 286 287 286
296 292 289 286 289 295 296 293 288 286 287 285 279 285 281 289 288 289 288 292 288 285 291 293 290 289 286 285 285 285 285 284 283 282 282 280 281 284 284 285 288 289 288 286
289 284 284 288 295 289 288 284 282 283 280 284 284 284 284 295 290 289 293 287 287 284 287 288 286 286 284 283 283 283 282 281 282 284 284 286 287 286 286 286 288 289 289 286
291 289 291 291 288 285 282 280 284 283 282 288 287 288 289 292 295 290 290 286 286 282 291 287 284 284 280 281 281 281 281 281 284 285 287 288 288 289 289 287 288 290 290 288
290 288 285 283 283 278 277 276 280 282 285 286 286 284 289 292 293 288 287 284 284 287 285 283 280 279 280 280 281 281 282 283 284 284 287 287 287 289 290 288 288 288 287 286
278 275 273 277 277 280 280 281 280 283 284 285 286 286 287 289 287 288 284 286 286 282 280 277 279 277 279 280 282 282 281 282 282 283 284 285 285 285 287 288 287 286 286 285
274 277 272 275 280 280 279 282 284 281 286 285 285 286 288 285 285 286 284 283 280 282 280 275 274 280 282 280 281 281 281 282 282 282 283 283 283 283 284 286 287 286 284 284
272 278 273 278 276 276 277 277 278 286 284 286 285 284 284 284 284 283 282 279 278 280 279 275 282 282 280 280 281 281 282 282 282 282 282 282 282 281 282 284 285 286 285 284
271 269 276 275 273 277 278 281 282 285 284 282 283 282 282 284 282 280 280 280 283 277 277 280 283 279 279 279 280 281 281 280 280 280 281 281 281 281 281 280 280 280 283 285

GFSNW_sfc_thetae_036.txt.gz
Theta_e
307 306 306 306 305 307 303 298 296 303 303 298 297 291 292 295 295 297 293 293 291 290 290 289 289 288 291 296 295 291 292 290 284 286 290 292 291 289 288 285 281 283 284 285
306 306 305 305 305 305 301 296 296 303 302 292 293 294 293 295 294 294 293 290 292 292 290 287 289 290 293 295 294 292 293 288 282 282 287 290 288 290 288 286 286 282 283 285
306 305 305 305 305 304 300 296 293 298 299 296 294 292 292 292 296 294 293 292 293 291 289 291 288 289 293 294 294 296 295 287 285 282 285 289 285 287 288 288 283 284 285 286
306 305 304 304 304 303 300 295 289 292 291 292 292 292 292 291 291 295 294 291 291 290 287 288 288 291 291 293 296 294 293 286 285 287 287 287 287 287 287 284 287 284 286 286
305 304 303 304 303 302 299 292 290 293 291 290 290 290 292 291 293 293 291 290 292 293 290 290 288 291 291 291 294 292 292 285 286 284 286 287 285 287 288 288 288 288 288 288
305 304 303 303 303 300 294 295 297 293 290 290 290 291 291 292 293 295 296 293 294 293 294 297 297 297 296 295 292 291 291 286 285 282 285 285 283 286 288 289 290 289 285 291
305 304 304 303 303 299 296 294 293 290 287 289 289 289 290 290 292 292 296 296 295 297 299 298 297 296 295 295 293 295 290 289 287 283 284 278 288 292 292 290 291 292 292 294
304 303 304 303 303 300 296 295 292 289 284 288 287 288 288 292 294 294 295 298 299 302 298 293 289 290 290 290 292 293 293 291 286 283 282 286 288 289 289 289 291 294 292 294
304 303 303 303 303 299 296 295 295 290 285 285 288 287 289 288 291 293 296 301 302 300 297 291 285 283 286 285 288 294 293 293 288 284 279 279 289 295 296 296 289 297 295 295
304 303 303 303 303 302 298 296 295 291 284 285 288 287 288 292 291 290 292 295 297 298 294 288 285 285 288 284 284 285 287 288 285 285 281 286 293 297 299 288 291 297 298 298
304 303 303 302 302 302 299 297 296 292 287 287 287 287 287 287 286 287 290 293 293 292 290 289 288 287 288 287 289 287 286 285 284 286 282 279 295 295 291 297 298 298 297 298
303 303 302 301 301 301 300 294 296 296 289 288 291 291 291 290 289 285 285 286 289 295 293 292 293 289 289 289 284 291 286 290 287 288 288 294 297 298 300 299 298 298 297 297
304 304 303 302 301 302 301 295 296 294 288 288 288 287 292 294 292 293 284 287 292 291 290 292 293 290 292 287 288 290 292 294 291 291 295 295 297 299 298 298 298 298 298 297
303 303 301 300 300 302 302 296 297 295 289 282 284 290 288 292 293 291 291 290 291 288 287 290 292 290 294 291 291 291 293 293 292 292 295 296 298 299 300 299 299 299 299 297
302 302 301 301 302 301 300 297 296 297 289 282 284 289 290 292 291 290 290 288 287 286 283 285 290 294 293 292 292 290 294 294 291 291 297 297 297 299 299 298 296 296 296 297
302 301 302 301 301 299 296 288 293 295 295 285 279 288 286 288 289 288 288 288 287 287 284 284 289 296 295 291 290 295 296 296 297 296 298 299 300 298 298 294 295 295 296 297
302 302 301 301 299 298 291 287 292 296 295 285 279 280 287 290 288 287 287 289 288 287 285 284 288 294 295 292 288 294 296 297 296 296 296 295 296 296 294 293 294 295 295 295
302 301 299 299 299 297 292 294 297 296 290 286 278 279 283 290 285 283 287 284 286 286 287 290 289 293 294 289 293 294 294 294 293 293 292 292 292 292 292 292 293 292 293 293
301 297 298 296 292 289 291 297 298 295 289 281 281 279 280 289 289 289 287 288 281 288 287 290 293 291 289 293 293 293 293 292 292 290 290 290 290 290 290 290 291 291 292 291
296 294 290 287 291 295 296 293 288 286 287 286 281 286 282 287 289 287 287 288 285 284 289 294 289 289 290 289 290 292 290 289 288 288 288 287 287 289 290 289 291 291 292 292
292 287 286 291 295 291 289 284 283 284 281 284 283 284 283 291 286 288 289 286 287 285 287 289 287 287 288 287 287 287 288 288 288 288 288 288 288 288 288 290 291 291 292 292
293 292 293 292 288 286 282 282 284 283 282 288 287 288 289 289 295 290 291 287 288 284 292 288 284 286 284 286 285 285 286 287 287 288 288 289 288 289 289 290 289 289 290 293
292 288 285 284 284 280 279 278 282 282 285 286 285 284 289 291 293 289 288 284 285 289 286 285 287 284 284 284 285 285 286 286 287 287 287 287 287 288 288 289 288 287 288 288
283 279 274 279 279 282 282 282 283 286 285 285 285 284 287 289 286 288 285 287 287 284 282 283 285 284 284 285 285 285 284 285 285 285 286 286 286 286 287 288 289 287 286 286
280 279 275 277 283 283 284 284 285 287 287 286 284 284 287 286 285 288 286 284 282 284 283 286 285 284 284 284 284 284 284 284 284 284 284 284 284 284 285 286 288 288 287 285
280 279 277 280 279 281 281 282 282 287 286 286 285 284 284 285 285 284 284 282 281 286 286 285 285 284 283 283 283 284 283 283 283 284 284 284 283 283 283 284 283 283 286 286
276 276 279 279 278 278 281 283 284 286 284 282 283 281 282 285 284 282 285 284 288 287 285 284 286 284 283 283 283 283 282 281 281 282 282 282 282 283 283 282 282 282 282 284

GFSNW_sfc_thetae_042.txt.gz
Theta_e
307 307 306 306 306 305 304 300 295 306 307 298 299 292 295 297 296 299 295 295 293 291 291 290 289 289 293 297 296 291 293 288 284 287 292 295 293 290 290 281 279 279 279 280
307 306 306 306 306 304 298 295 297 306 306 292 292 296 295 297 295 296 295 293 294 294 291 287 291 291 295 297 295 291 292 285 280 282 287 290 288 291 292 290 287 283 280 279
306 306 306 305 306 304 301 296 291 300 302 299 295 293 293 293 299 296 296 294 295 292 290 292 289 291 295 295 296 298 295 288 282 278 281 287 284 288 290 286 280 283 282 283
306 305 305 305 305 304 300 297 291 293 290 293 293 295 295 293 292 297 297 293 293 291 288 289 289 292 292 294 296 294 292 283 282 286 289 288 287 287 288 283 286 280 285 285
305 305 305 305 304 305 297 290 288 292 291 293 292 292 294 293 295 295 293 291 294 292 290 291 288 291 290 289 292 291 293 284 285 280 288 287 283 287 288 288 288 287 287 286
305 305 304 305 304 303 292 292 295 292 290 291 291 291 292 293 296 297 297 295 293 292 295 297 296 295 294 293 291 290 289 284 280 277 286 284 279 285 287 288 289 289 284 288
305 305 304 304 304 302 296 293 292 288 285 287 288 290 292 292 293 292 296 296 295 296 299 298 296 293 294 294 292 293 289 286 284 276 280 272 287 291 291 289 290 291 291 292
305 305 304 304 304 303 298 296 292 287 282 284 287 286 288 290 294 294 296 299 300 299 297 291 288 288 288 291 292 291 292 288 284 280 277 284 287 290 289 288 288 293 291 292
305 305 304 304 304 302 300 297 297 291 284 283 285 283 287 287 288 292 296 301 302 299 295 291 284 282 285 284 288 292 292 292 286 284 277 275 289 292 294 294 287 295 294 293
304 304 304 303 303 303 300 298 297 292 285 289 287 284 284 288 288 287 293 291 296 298 291 288 284 283 287 283 283 284 285 285 282 283 281 282 292 294 296 285 287 295 295 296
305 305 305 304 303 303 299 297 299 292 287 288 290 290 285 285 286 282 286 289 293 292 287 287 286 283 285 283 286 285 284 282 283 284 281 276 296 295 290 294 297 297 296 296
304 304 303 303 302 301 301 294 297 297 290 288 293 293 293 291 289 286 286 285 285 289 288 289 289 286 286 285 281 289 283 286 284 285 285 292 295 294 297 297 296 297 296 296
303 303 303 302 302 302 301 297 297 294 290 288 288 288 292 295 294 294 284 287 290 288 287 286 289 287 289 282 284 287 288 291 287 288 290 291 294 297 297 296 296 297 298 297
303 303 303 303 303 303 302 297 297 295 290 281 284 292 290 293 293 293 292 290 291 289 288 284 285 288 293 288 289 288 291 291 288 288 291 293 295 296 297 297 297 297 297 297
303 303 303 303 302 302 299 297 298 298 289 282 283 290 291 292 291 291 291 289 287 285 283 282 281 288 288 291 290 288 292 290 287 286 293 292 294 297 299 297 297 295 294 293
303 303 303 302 301 299 296 289 295 297 296 285 280 289 288 289 291 289 288 288 287 286 283 282 284 288 286 282 285 292 295 296 296 292 297 296 297 298 297 297 296 294 293 293
302 303 302 300 300 297 291 288 292 297 295 285 280 281 288 290 289 288 287 288 288 286 285 282 281 282 287 286 282 291 295 297 296 297 297 294 294 293 294 293 293 294 293 293
302 301 298 299 300 298 293 295 297 297 290 286 279 280 284 289 286 284 288 284 285 285 282 283 281 283 283 280 288 294 296 296 296 294 293 291 292 292 292 292 292 291 291 292
299 296 299 297 294 290 291 297 297 296 289 283 282 279 280 289 287 288 284 285 279 284 281 281 283 281 279 283 285 291 294 293 293 292 291 290 290 290 291 290 290 289 290 291
298 294 290 288 290 295 295 292 288 286 287 286 280 287 282 288 287 286 283 284 282 277 281 286 281 284 287 291 293 293 291 291 291 288 285 284 283 287 288 288 289 290 290 290
293 288 287 291 296 292 289 285 284 285 282 285 285 285 283 290 284 285 287 285 283 279 284 283 284 285 288 289 288 290 289 290 289 290 290 289 288 287 286 288 290 291 291 288
292 291 293 293 289 286 282 282 286 284 283 287 286 285 286 288 290 286 288 284 284 282 288 285 284 286 286 287 286 287 288 288 289 290 289 288 289 289 288 289 289 289 289 289
293 287 283 286 282 275 276 275 278 280 286 286 285 283 286 287 290 286 285 284 284 288 285 283 284 285 285 286 286 286 287 288 289 288 288 288 287 287 286 286 288 289 288 288
283 277 271 277 275 278 279 280 281 285 285 285 285 284 284 287 285 287 284 288 287 282 281 283 283 284 284 285 287 287 286 286 286 286 287 286 286 285 286 285 285 285 287 288
278 278 272 274 282 281 280 280 281 284 286 285 284 284 284 283 283 287 285 284 280 283 282 284 284 283 285 285 286 285 284 284 284 285 284 284 284 284 284 284 284 283 283 285
278 277 275 281 276 277 278 278 278 284 285 284 285 282 282 282 283 282 283 282 281 283 284 286 285 284 284 285 285 284 283 282 284 284 284 284 282 282 282 284 283 283 282 282
274 275 282 279 277 277 279 281 282 285 281 280 281 278 278 281 281 282 285 283 284 285 286 284 284 283 283 283 283 283 281 282 282 283 283 283 282 281 280 278 279 279 281 281

GFSNW_sfc_thetae_045.txt.gz
Theta_e
307 307 307 307 307 307 299 291 288 300 303 291 294 283 291 296 294 296 294 292 291 288 288 287 287 287 291 296 295 291 293 288 283 286 294 295 293 289 287 279 279 278 276 278
307 306 306 307 307 305 297 287 290 300 299 290 286 291 294 295 294 293 293 291 292 291 288 285 288 289 294 295 293 290 292 284 280 282 287 291 289 290 291 288 284 279 276 278
306 306 306 306 306 306 297 289 285 291 294 293 293 289 290 291 296 295 294 292 292 289 288 289 287 288 293 294 294 299 295 286 280 276 280 286 283 288 291 288 278 282 281 282
306 305 305 305 306 307 295 289 288 288 286 287 289 291 294 290 291 294 294 290 291 289 285 286 287 289 289 292 296 292 290 279 279 285 288 287 286 286 288 284 286 282 285 283
306 305 305 305 305 304 288 284 283 287 287 288 288 290 291 291 294 292 293 289 292 290 288 288 286 289 287 287 289 289 290 279 281 277 286 286 283 286 287 288 287 286 286 285
305 305 305 305 305 300 286 287 289 288 287 286 286 289 290 291 294 295 295 293 291 289 293 294 292 291 292 291 289 287 287 280 275 274 284 282 278 283 285 286 289 289 284 289
305 305 305 305 304 302 290 288 287 281 280 282 284 286 287 287 291 290 293 295 294 296 297 296 293 292 292 291 290 291 287 284 279 275 279 271 283 289 289 287 289 290 290 290
305 305 304 304 304 304 292 291 287 282 277 282 283 282 283 287 290 291 293 297 297 298 295 289 286 285 287 289 290 290 291 288 279 276 278 281 285 288 288 286 286 291 290 291
304 305 304 304 303 304 294 291 291 285 280 279 284 283 284 282 283 289 294 297 296 297 292 289 283 282 284 282 285 290 291 291 282 282 277 275 287 289 292 293 284 293 293 292
304 305 305 304 303 303 296 296 295 288 281 285 285 282 282 285 282 284 290 288 290 295 288 285 283 282 286 281 281 282 285 285 280 282 279 282 289 292 294 284 286 294 293 293
304 304 303 303 302 302 296 295 296 292 284 285 288 288 284 284 283 280 284 287 289 290 286 285 284 282 283 282 284 283 282 280 279 281 280 275 293 293 288 293 294 294 295 295
303 303 303 303 302 302 300 294 298 297 290 285 290 291 291 290 288 284 284 283 285 288 287 288 288 285 283 282 279 285 281 285 282 283 282 289 294 293 295 296 296 294 294 295
303 304 304 303 303 303 300 296 296 293 289 284 284 285 290 293 293 293 282 285 289 287 287 286 287 287 288 281 282 284 286 289 285 286 288 290 292 295 295 295 295 297 296 296
303 303 303 303 303 302 301 294 294 293 289 281 282 291 289 292 293 292 292 290 290 289 287 283 283 284 290 286 287 285 288 289 287 286 289 291 293 294 295 295 295 295 296 295
302 303 303 303 302 301 296 293 293 296 288 281 282 288 289 290 291 290 291 289 287 285 282 280 280 285 285 285 287 286 290 289 286 285 290 290 291 294 296 295 295 295 294 293
302 302 302 301 300 299 292 287 291 294 293 283 278 288 285 287 290 288 288 288 286 285 282 281 282 286 283 278 280 289 293 294 295 291 294 294 294 294 296 295 294 293 293 292
302 302 301 299 300 292 287 286 291 296 292 284 277 280 287 289 288 287 286 287 286 284 282 281 280 280 285 282 278 285 290 293 293 296 295 293 293 292 292 292 292 293 291 292
301 299 297 299 300 297 290 291 297 295 289 284 274 276 282 289 285 282 286 282 283 282 281 281 279 280 279 275 280 284 288 293 293 291 292 292 291 290 290 291 291 290 290 290
299 297 299 294 289 286 289 297 297 295 289 282 280 277 276 290 287 288 284 284 278 282 279 279 281 279 277 280 282 283 287 290 291 292 291 289 289 289 290 289 288 287 288 289
298 291 287 283 287 295 295 292 288 286 286 286 280 285 281 288 287 286 283 283 278 272 279 282 280 278 285 285 287 292 289 290 291 288 285 284 283 287 286 286 287 288 288 289
289 284 283 287 296 289 287 283 280 284 279 284 283 284 283 288 282 283 287 281 282 272 280 279 281 284 286 288 289 290 292 291 290 288 288 288 289 287 287 288 290 290 290 288
289 287 290 288 288 284 274 271 281 280 279 285 284 284 285 286 290 286 286 283 284 277 285 282 283 286 286 286 286 286 288 290 290 290 288 288 289 289 289 288 289 289 289 289
289 283 277 278 275 272 268 267 271 272 279 279 280 280 285 287 288 286 285 282 283 288 284 283 285 285 285 286 286 286 288 290 289 288 288 288 286 286 285 284 285 286 287 286
277 270 269 270 268 270 272 273 271 279 277 279 282 279 281 285 284 286 282 287 286 280 281 281 284 284 284 285 287 286 286 287 286 286 287 286 285 284 284 284 283 282 282 284
273 272 269 269 276 271 272 280 275 277 279 278 278 282 284 281 281 285 284 283 280 282 280 284 285 285 285 285 286 285 285 285 285 285 284 284 283 282 282 283 282 282 281 281
272 270 270 275 270 269 271 269 272 277 281 277 281 278 280 280 282 280 281 282 277 281 285 286 286 284 285 285 284 284 282 282 283 284 284 283 282 280 280 281 279 280 281 280
268 270 278 274 269 272 273 279 279 282 277 271 277 275 273 278 277 278 283 279 283 286 287 286 285 283 284 282 283 282 281 281 283 283 283 282 282 281 278 277 278 278 280 280

GFSNW_sfc_thetae_048.txt.gz
Theta_e
306 307 307 307 307 307 298 289 290 299 303 292 292 281 290 295 293 294 293 290 289 287 287 285 285 287 290 296 296 290 290 286 282 286 293 295 293 289 288 282 277 278 276 278
306 306 306 306 307 306 293 287 288 299 301 289 284 290 292 294 292 292 292 289 291 290 287 284 287 288 292 295 292 291 291 283 279 280 285 291 290 291 291 287 284 276 275 279
306 306 306 306 306 306 295 289 282 290 296 295 289 289 288 289 294 293 292 291 291 288 286 288 286 286 292 293 292 298 294 284 280 278 280 284 284 289 290 287 278 282 279 282
306 306 306 306 306 304 293 286 285 285 286 289 289 291 293 289 290 293 292 289 289 287 284 285 285 287 288 291 295 291 289 279 279 283 286 285 284 285 288 286 288 283 287 284
306 306 305 305 305 300 286 282 281 285 283 287 288 290 289 290 294 291 292 287 291 288 287 286 285 288 286 286 288 287 288 277 280 276 284 285 283 285 287 289 289 287 285 284
306 305 305 305 304 297 286 286 287 286 285 281 285 285 286 288 292 295 294 291 289 289 291 292 292 291 290 289 288 286 286 279 274 272 282 282 278 283 284 286 289 288 283 289
305 305 305 304 305 298 289 287 285 280 278 279 282 282 285 286 287 289 292 294 293 294 297 294 292 291 290 290 288 289 285 281 277 273 278 270 283 287 288 287 288 290 289 290
305 305 305 304 304 303 291 289 286 281 277 280 281 282 283 286 289 289 293 295 297 298 294 287 284 284 285 287 289 287 289 285 278 274 273 280 284 287 286 284 285 289 289 290
305 305 305 304 304 304 292 290 289 284 280 279 284 282 284 280 283 287 293 297 292 295 291 287 280 277 281 281 285 290 290 290 282 281 277 274 283 289 291 291 283 292 291 290
304 304 303 303 303 303 294 292 292 286 280 283 284 280 281 284 281 281 287 285 289 294 286 283 282 278 284 280 280 282 285 285 282 279 278 281 287 289 293 281 284 293 291 290
304 303 303 302 302 302 294 292 296 290 284 283 287 287 283 284 282 279 283 286 288 289 285 285 282 281 282 280 282 282 282 280 280 281 278 275 290 291 287 291 293 293 292 291
303 304 304 303 303 303 298 292 298 297 286 285 289 290 290 290 288 284 284 283 285 288 287 287 288 284 282 281 278 283 281 284 281 283 283 288 290 292 295 295 295 294 293 294
303 303 303 303 303 303 299 295 291 293 286 282 283 283 288 292 292 292 282 286 288 286 287 285 286 285 289 281 281 282 285 287 284 285 287 288 291 293 294 295 295 296 295 295
303 303 303 303 303 301 299 290 291 294 288 277 281 290 288 292 293 292 292 290 290 288 286 282 282 282 289 286 286 285 287 288 286 285 287 289 291 293 295 295 295 294 294 294
302 302 303 303 302 300 294 290 291 293 283 278 281 287 290 290 291 290 291 290 287 285 282 280 279 283 283 283 284 282 289 288 286 285 290 290 290 292 295 294 294 294 294 293
302 302 302 301 300 298 291 284 289 292 290 280 276 287 287 287 290 288 288 288 286 285 282 280 282 285 282 275 277 284 289 291 292 289 293 294 293 293 294 294 294 293 292 292
301 301 299 300 300 290 285 284 288 295 290 280 274 277 287 289 287 286 285 286 285 284 282 281 280 280 282 279 276 283 284 285 289 293 293 292 293 292 292 292 292 293 291 291
300 298 299 300 299 295 287 290 297 294 286 282 272 276 281 288 285 283 285 282 283 283 281 281 280 280 279 275 280 281 283 284 286 290 292 292 292 289 290 290 291 289 289 289
298 300 300 292 288 284 286 297 296 294 287 275 274 275 275 290 285 288 285 284 278 282 279 280 280 278 275 281 281 282 283 283 288 289 290 292 291 290 290 289 288 287 287 288
298 290 286 282 285 295 295 292 288 286 286 281 273 279 275 286 284 284 282 282 277 269 279 281 279 277 284 285 287 286 289 289 287 286 287 287 286 287 288 287 287 288 287 287
288 283 280 286 294 289 288 283 279 283 276 282 277 280 281 286 282 282 287 279 279 272 276 278 275 281 288 287 286 287 291 291 291 290 289 289 289 287 287 289 290 289 289 288
288 287 289 287 285 283 271 272 279 277 274 282 283 281 283 285 288 286 285 283 284 276 284 279 280 285 286 286 286 287 287 289 290 290 289 289 289 290 289 289 288 288 289 288
288 282 275 278 274 270 267 265 270 270 275 276 277 277 280 285 286 285 285 281 282 286 281 282 283 286 286 285 285 286 287 289 288 287 288 288 286 286 285 284 283 284 285 285
277 270 269 271 266 268 270 270 269 277 275 276 280 281 277 281 280 285 281 285 286 281 276 276 284 285 285 286 287 287 286 287 287 285 285 286 285 284 284 283 282 282 281 282
274 273 270 267 274 269 269 280 275 275 277 277 278 282 282 279 278 282 283 282 278 279 277 281 285 286 285 285 286 285 285 285 285 285 284 284 283 283 282 282 281 281 281 280
273 270 270 273 269 267 274 273 273 276 279 276 279 280 278 278 280 277 278 277 275 278 283 287 286 286 286 285 286 284 282 283 284 284 284 283 282 280 279 279 278 280 280 279
271 271 277 272 270 272 273 277 278 281 277 271 270 266 270 277 276 274 277 276 278 281 285 284 284 284 284 284 283 282 281 282 283 284 284 282 282 282 278 276 276 278 279 279